Regional Weather Roundup
Issued by NWS

Home | Current Version | Previous Version | Text Only | Print | Product List | Glossary Off
Versions: 1 2 3 4 5 6 7 8 9 10 11 12 13 14 15 16 17 18 19 20 21 22 23 24 25 26 27 28 29 30 31 32 33 34 35 36 37 38 39 40 41 42 43 44 45 46 47 48 49 50

000
ASUS43 KLMK 191810
RWRKY
KENTUCKY REGIONAL WEATHER ROUNDUP
NATIONAL WEATHER SERVICE LOUISVILLE KY
100 PM EST SUN FEB 19 2017

NOTE "FAIR" INDICATES FEW OR NO CLOUDS BELOW 12,000 FEET
WITH NO SIGNIFICANT WEATHER AND/OR OBSTRUCTIONS TO VISIBILITY.

KYZ001>023-026-027-061>063-070>075-191900-
WESTERN AND SOUTH CENTRAL KENTUCKY

CITY           SKY/WX    TMP DP  RH WIND       PRES   REMARKS
PADUCAH        CLOUDY    54  51  90 W3        30.12S FOG
HENDERSON      CLOUDY    54  48  82 S3        30.10S
OWENSBORO      CLOUDY    52  49  89 S5        30.12F FOG
HOPKINSVILLE   SUNNY     64  55  72 S3        30.10F
BOWLING GREEN  CLOUDY    61  52  72 SW8       30.12F
GLASGOW        CLOUDY    60  49  67 CALM      30.11F
$$

KYZ024-025-028>034-038-045-046-053-191900-
NORTH CENTRAL KENTUCKY

CITY           SKY/WX    TMP DP  RH WIND       PRES   REMARKS
LOUISVILLE/SDF CLOUDY    57  49  74 SW6       30.10F
LOUISVILLE/LOU CLOUDY    56  49  77 SW6       30.11F
FORT KNOX      CLOUDY    55  52  90 SW6       30.09F
$$

KYZ035>037-039>044-047>052-055>060-089>105-191900-
NORTHEAST KENTUCKY

CITY           SKY/WX    TMP DP  RH WIND       PRES   REMARKS
LEXINGTON      CLOUDY    53  48  83 W7        30.11F
COVINGTON      CLOUDY    52  46  80 SW3       30.10F
FRANKFORT      CLOUDY    54  47  77 VRB6      30.10F
$$

KYZ054-064>069-076>088-106>120-191900-
SOUTHEAST KENTUCKY

CITY           SKY/WX    TMP DP  RH WIND       PRES   REMARKS
JACKSON        CLOUDY    55  46  71 CALM      30.11F
LONDON         PTSUNNY   57  45  64 SW5       30.12F
SOMERSET       SUNNY     55  45  67 S3        30.14F
MIDDLESBORO    MOSUNNY   59  48  68 E3        30.13F
MONTICELLO     CLEAR     61  48  62 VRB7      30.14F
$$





USA.gov is the U.S. government's official web portal to all federal, state and local government web resources and services.